Tracking 19242 objects as of 17-Aug-2018
HD Live streaming from Space Station
objects crossing your sky now

COSMOS 2287 (GLONASS)

Track COSMOS 2287 (GLONASS) now!
COSMOS 2287 (GLONASS) is classified as:


NORAD ID: 23203
Int'l Code: 1994-050A
Perigee: 19,116.7 km
Apogee: 19,157.3 km
Inclination: 66.1 °
Period: 675.7 minutes
Semi major axis: 25507 km
RCS: 3.2588 m2 (large)
Launch date: August 11, 1994
Source: Commonwealth of Independent States (former USSR) (CIS)
Launch site: TYURATAM MISSILE AND SPACE COMPLEX (TTMTR)
SV:
aabbcc
Your satellite tracking list
Your tracking list is empty




NASA's NSSDC Master Catalog

Two Line Element Set (TLE):
1 23203U 94050A   18228.51565153 -.00000036  00000-0  00000+0 0  9999
2 23203  66.0575 295.8950 0007968  56.5771 268.5386  2.13102499186903
Source of the keplerian elements: AFSPC